This is the latest recevied weather packets stored in our database for station/object W6MAF. If no packets are shown the sender has not sent any weather packets the latest 10 day(s).
| Time | Temp. | Humidity | Pressure | Rain* | Wind** | Luminosity | Snow |
|---|---|---|---|---|---|---|---|
| 1788648514 | 26.67° C | 6% | - | 0 mm | 7.15 m/s, 194° | - | - |
| 1788648213 | 26.67° C | 6% | - | 0 mm | 9.39 m/s, 152° | - | - |
| 1788647915 | 26.67° C | 6% | - | 0 mm | 7.6 m/s, 176° | - | - |
| 1788647617 | 26.67° C | 6% | - | 0 mm | 8.49 m/s, 193° | - | - |
| 1788647319 | 26.67° C | 5% | - | 0 mm | 6.26 m/s, 181° | - | - |
| 1788647022 | 26.67° C | 6% | - | 0 mm | 9.39 m/s, 174° | - | - |
| 1788646724 | 27.22° C | 6% | - | 0 mm | 8.94 m/s, 200° | - | - |
| 1788646423 | 27.22° C | 4% | - | 0 mm | 8.05 m/s, 180° | - | - |
| 1788646125 | 27.22° C | 5% | - | 0 mm | 8.05 m/s, 167° | - | - |
| 1788645828 | 27.22° C | 5% | - | 0 mm | 9.39 m/s, 181° | - | - |
| 1788645530 | 27.22° C | 5% | - | 0 mm | 7.6 m/s, 159° | - | - |
| 1788645232 | 26.67° C | 5% | - | 0 mm | 6.26 m/s, 172° | - | - |
| 1788644945 | 26.67° C | 5% | - | 0 mm | 7.15 m/s, 183° | - | - |
| 1788644633 | 26.67° C | 5% | - | 0 mm | 5.81 m/s, 149° | - | - |
| 1788644336 | 26.67° C | 5% | - | 0 mm | 7.15 m/s, 203° | - | - |
| 1788644038 | 26.67° C | 5% | - | 0 mm | 8.49 m/s, 193° | - | - |
| 1788643740 | 26.67° C | 5% | - | 0 mm | 8.49 m/s, 172° | - | - |
| 1788643443 | 26.67° C | 5% | - | 0 mm | 8.05 m/s, 181° | - | - |
| 1788643145 | 26.67° C | 5% | - | 0 mm | 8.94 m/s, 169° | - | - |
| 1788642845 | 26.67° C | 5% | - | 0 mm | 7.6 m/s, 179° | - | - |
| 1788642546 | 26.67° C | 5% | - | 0 mm | 6.71 m/s, 143° | - | - |
| 1788642249 | 26.67° C | 5% | - | 0 mm | 5.36 m/s, 176° | - | - |
| 1788641951 | 26.67° C | 4% | - | 0 mm | 8.49 m/s, 177° | - | - |
| 1788641653 | 26.67° C | 4% | - | 0 mm | 8.49 m/s, 167° | - | - |
| 1788641355 | 26.67° C | 4% | - | 0 mm | 8.05 m/s, 176° | - | - |
* Rain latest hour (hover to see other rain measurements)
** Current wind speed in m/s (hover to see current wind gust speed)